Regional Weather Roundup
Issued by NWS Sterling, VA

Home | Current Version | Previous Version | Text Only | Print | Product List | Glossary Off
Versions: 1 2 3 4 5 6 7 8 9 10 11 12 13 14 15 16 17 18 19 20 21 22 23 24 25 26 27 28 29 30 31 32 33 34 35 36 37 38 39 40 41 42 43 44 45 46 47 48 49 50

000
ASUS41 KLWX 251610
RWRLWX

REGIONAL WEATHER ROUNDUP
NATIONAL WEATHER SERVICE BALTIMORE MD/WASHINGTON DC
1200 PM EDT FRI JUL 25 2014

Note: "FAIR" indicates few or no clouds below 12,000 feet
with no significant weather and/or obstructions to visibility.
 TC=TEMPERATURE CELSIUS

 * =Non NWS site. Station does not report precipitation (e.g. rain,
    snow, etc.), thunder, or fog.

DCZ001-MDZ009-015-VAZ040>042-051-053>054-251700-
WASHINGTON METRO
  /KDAA//-FT BELVOIR

CITY           SKY/WX    TMP DP  RH WIND       PRES   REMARKS
WASHINGTON NAT MOSUNNY   80  53  39 NW9G18    30.07F
DULLES         MOSUNNY   76  50  40 NW10      30.07F
ANDREWS AFB    SUNNY     77  54  43 NW9       30.06F
QUANTICO       MOSUNNY   77  56  48 NW7       30.07F
COLLEGE PARK*  SUNNY     77  52  41 NW8       30.06F
LEESBURG*      SUNNY     77  59  53 NW7       30.08F
GAITHERSBURG*  SUNNY     73  54  49 CALM      30.11S

$$

MDZ006>007-011-014-251700-
BALTIMORE METRO

CITY           SKY/WX    TMP DP  RH WIND       PRES   REMARKS
BWI AIRPORT    MOSUNNY   78  52  40 NW13      30.05F
MD SCIENCE CTR   N/A     77  49  37 MISG      30.05F
MARTIN STATE   SUNNY     75  54  46 NW8       30.06F
ANNAPOLIS      SUNNY     76  53  44 VRB7      30.05F
FORT MEADE*    SUNNY     77  54  44 N7        30.08F

$$

MDZ012-015-019>023-251700-
MARYLAND EASTERN SHORE

CITY           SKY/WX    TMP DP  RH WIND       PRES   REMARKS
OCEAN CITY     SUNNY     79  58  48 W7        30.03S
SALISBURY      NOT AVBL
BAY BRIDGE AP*   N/A     73  50  43 NW5       30.05F
CAMBRIDGE*     SUNNY     77  50  38 NW10      30.05F
EASTON*        SUNNY     75  57  53 NW6       30.09S

$$

MDZ017>025-251700-
SOUTHERN MARYLAND

CITY           SKY/WX    TMP DP  RH WIND       PRES   REMARKS
PATUXENT RIVER SUNNY     76  52  43 N6        30.06F
ST INIGOES     SUNNY     78  54  43 MISG      30.06S
LEONARDTOWN*   SUNNY     73  52  46 N3        30.07F

$$

MDZ003>005-251700-
NORTH CENTRAL MARYLAND

CITY           SKY/WX    TMP DP  RH WIND       PRES   REMARKS
FREDERICK*     SUNNY     75  55  50 N5        30.10
HAGERSTOWN APT SUNNY     72  51  47 VRB3      30.09S
WESTMINSTER*   SUNNY     73  55  53 NW8       30.08S

$$

MDZ501>502-251700-
WESTERN MARYLAND

CITY           SKY/WX    TMP DP  RH WIND       PRES   REMARKS
OAKLAND*       MOSUNNY   64  48  55 NW6       30.16S
CUMBERLAND*    SUNNY     79  54  41 CALM      30.13R

$$

VAZ025>031-251700-
SHENANDOAH VALLEY

CITY           SKY/WX    TMP DP  RH WIND       PRES   REMARKS
WINCHESTER*    SUNNY     75  54  46 NW6       30.08F
STAUNTON*      SUNNY     72  60  65 CALM      30.11F

$$

WVZ021-048>050-054>055-251700-
EASTERN WEST VIRGINIA PANHANDLE

CITY           SKY/WX    TMP DP  RH WIND       PRES   REMARKS
MARTINSBURG    SUNNY     76  52  43 CALM      30.09F
PETERSBURG*    SUNNY     75  49  39 NE3       30.10F

$$

VAZ036>039-050-251700-
CENTRAL FOOTHILLS

CITY           SKY/WX    TMP DP  RH WIND       PRES   REMARKS
CHARLOTTESVILL SUNNY     75  57  53 VRB3      30.08F
ORANGE*        SUNNY     77  59  53 N3        30.09F

$$

VAZ055>057-251700-
NORTH AND CENTRAL PIEDMONT

CITY           SKY/WX    TMP DP  RH WIND       PRES   REMARKS
FREDERICKSBRG* SUNNY     78  58  49 CALM      30.07S
STAFFORD*      SUNNY     76  56  49 NW6       30.11F

$$

NCZ024-NYZ072-PAZ021-071-VAZ022-071-251700-
OTHER REGIONAL OBSERVATIONS

CITY           SKY/WX    TMP DP  RH WIND       PRES   REMARKS
NEW YORK CITY  SUNNY     78  54  43 E3        30.05S
PHILADELPHIA   MOSUNNY   78  55  44 W7        30.03F
PITTSBURGH     MOSUNNY   70  47  43 W3        30.11F
ROANOKE        MOSUNNY   75  58  55 SE5       30.12S
RICHMOND       MOSUNNY   81  56  42 NW7       30.07F
RALEIGH        PTSUNNY   79  66  65 E8        30.08S

$$

ANZ530>537-251700-
MARINE OBSERVATIONS

STATION/POSITION TIME  TEMP    WIND        PRES
                       AIR SEA DIR/SP/G
                 (UTC) (F)     (DEG/KT/KT) (MB)
THOMAS PT LIGHT  1600   73 79   10/  7/  9 1018.3F
BALT KEY BRIDGE  1600   78     320/ 12/ 14 1017.4F
COVE POINT       1600   71     360/  7/ 10 1018.0F
LEWISETTA        1600   75 79  350/  6/  8 1018.0S
SOLOMONS ISLAND  1600      80                N/A
PINEY POINT      1600          320/  8/ 10   N/A

$$




USA.gov is the U.S. government's official web portal to all federal, state and local government web resources and services.